Location: Bettgenhausen
(50.6463°N, 7.5681°E)
Time: 08:21:49
(UTC+00:00)

STARLINK-54 - Pass Details

Date: 27 February 2020
Orbit: 529 x 530 km, 53.0° (Epoch: 28 March)

Event Time Altitude Azimuth Distance (km) Brightness Sun altitude
Rises 18:45:12 0° 279° (W) 2,669 9.0 -16.4°
Reaches altitude 10° 18:47:26 10° 283° (WNW) 1,779 7.5 -16.7°
Maximum altitude 18:51:27 62° 5° (N) 602 3.7 -17.3°
Enters shadow 18:52:50 37° 70° (ENE) 838 4.1 -17.6°
